| time (UTC) | temp F | wind direction | speed MPH | gust MPH | rain 1hr in | rain 24hr in | rain mn in | humidity % | barometer mb |
| 20260505204502 | 57 | 40 | 11.0 | 0.0 | 0.00 | 0.00 | 0.00 | 83 | 1002.1 |
| 20260505203002 | 57 | 40 | 11.0 | 0.0 | 0.00 | 0.00 | 0.00 | 83 | 1002.1 |
| 20260505201502 | 58 | 40 | 11.0 | 0.0 | 0.00 | 0.00 | 0.00 | 81 | 1002.2 |
| 20260505200002 | 58 | 40 | 10.0 | 0.0 | 0.00 | 0.00 | 0.00 | 81 | 1002.2 |
| 20260505194502 | 59 | 40 | 9.0 | 0.0 | 0.00 | 0.00 | 0.00 | 79 | 1002.0 |
| 20260505193003 | 59 | 40 | 9.0 | 0.0 | 0.00 | 0.00 | 0.00 | 79 | 1002.0 |
| 20260505191502 | 60 | 40 | 9.0 | 0.0 | 0.00 | 0.00 | 0.00 | 78 | 1001.8 |
| 20260505190003 | 60 | 60 | 10.0 | 0.0 | 0.00 | 0.00 | 0.00 | 78 | 1001.8 |
| 20260505184502 | 62 | 60 | 10.0 | 0.0 | 0.00 | 0.00 | 0.00 | 74 | 1001.9 |
| 20260505183002 | 62 | 40 | 8.0 | 0.0 | 0.00 | 0.00 | 0.00 | 74 | 1001.9 |
| 20260505181502 | 62 | 40 | 8.0 | 0.0 | 0.00 | 0.00 | 0.00 | 74 | 1001.9 |
| 20260505180002 | 62 | 50 | 8.0 | 0.0 | 0.00 | 0.00 | 0.00 | 74 | 1001.9 |
| 20260505174502 | 63 | 50 | 8.0 | 0.0 | 0.00 | 0.00 | 0.00 | 72 | 1002.0 |
| 20260505173002 | 63 | 30 | 7.0 | 0.0 | 0.00 | 0.00 | 0.00 | 72 | 1002.0 |
| 20260505171502 | 64 | 30 | 7.0 | 0.0 | 0.00 | 0.00 | 0.00 | 70 | 1002.1 |
| 20260505170002 | 64 | 20 | 6.0 | 0.0 | 0.00 | 0.00 | 0.00 | 70 | 1002.1 |
| 20260505164502 | 64 | 360 | 8.0 | 0.0 | 0.00 | 0.00 | 0.00 | 70 | 1002.3 |
| 20260505163002 | 64 | 360 | 8.0 | 0.0 | 0.00 | 0.00 | 0.00 | 70 | 1002.3 |
| 20260505161502 | 64 | 360 | 8.0 | 0.0 | 0.00 | 0.00 | 0.00 | 69 | 1002.4 |
| 20260505153002 | 65 | 360 | 8.0 | 0.0 | 0.00 | 0.00 | 0.00 | 68 | 1002.4 |
| 20260505151502 | 67 | 330 | 4.0 | 0.0 | 0.00 | 0.00 | 0.00 | 60 | 1002.4 |
| 20260505124502 | 64 | 360 | 3.0 | 0.0 | 0.00 | 0.00 | 0.00 | 69 | 1003.3 |
| 20260505123002 | 64 | 60 | 3.0 | 0.0 | 0.00 | 0.00 | 0.00 | 69 | 1003.3 |
| 20260505121502 | 64 | 60 | 3.0 | 0.0 | 0.00 | 0.00 | 0.00 | 69 | 1003.6 |
| 20260505120002 | 64 | 100 | 1.0 | 0.0 | 0.00 | 0.00 | 0.00 | 69 | 1003.6 |
| 20260505114502 | 63 | 330 | 2.0 | 0.0 | 0.00 | 0.00 | 0.00 | 70 | 1003.8 |
| 20260505113002 | 63 | 330 | 2.0 | 0.0 | 0.00 | 0.00 | 0.00 | 70 | 1003.8 |
| 20260505111502 | 63 | 330 | 1.0 | 0.0 | 0.00 | 0.00 | 0.00 | 75 | 1003.9 |
| 20260505101502 | 61 | 20 | 2.0 | 0.0 | 0.00 | 0.00 | 0.00 | 76 | 1003.9 |
| 20260505100002 | 61 | 110 | 1.0 | 0.0 | 0.00 | 0.00 | 0.00 | 76 | 1003.9 |
| 20260505094502 | 60 | 110 | 1.0 | 0.0 | 0.00 | 0.00 | 0.00 | 78 | 1004.1 |
| 20260505093002 | 60 | 60 | 3.0 | 0.0 | 0.00 | 0.00 | 0.00 | 78 | 1004.1 |
| 20260505091502 | 59 | 90 | 3.0 | 0.0 | 0.00 | 0.00 | 0.00 | 80 | 1004.2 |
| 20260505090002 | 59 | 90 | 3.0 | 0.0 | 0.00 | 0.00 | 0.00 | 80 | 1004.2 |
| 20260505084502 | 59 | 90 | 4.0 | 0.0 | 0.00 | 0.00 | 0.00 | 79 | 1004.3 |
| 20260505083002 | 59 | 90 | 4.0 | 0.0 | 0.00 | 0.00 | 0.00 | 79 | 1004.3 |
| 20260505081502 | 58 | 90 | 4.0 | 0.0 | 0.00 | 0.00 | 0.00 | 79 | 1004.2 |
| 20260505080002 | 58 | 80 | 7.0 | 0.0 | 0.00 | 0.00 | 0.00 | 79 | 1004.2 |
| 20260505074502 | 58 | 80 | 7.0 | 0.0 | 0.00 | 0.00 | 0.00 | 80 | 1004.2 |
| 20260505073002 | 58 | 70 | 6.0 | 0.0 | 0.00 | 0.00 | 0.00 | 80 | 1004.2 |
| 20260505071502 | 57 | 60 | 7.0 | 0.0 | 0.00 | 0.00 | 0.00 | 80 | 1004.3 |
| 20260505070002 | 57 | 60 | 7.0 | 0.0 | 0.00 | 0.00 | 0.00 | 80 | 1004.3 |
| 20260505064502 | 57 | 60 | 7.0 | 0.0 | 0.00 | 0.00 | 0.00 | 82 | 1004.6 |
| 20260505063002 | 57 | 50 | 6.0 | 0.0 | 0.00 | 0.00 | 0.00 | 82 | 1004.6 |
| 20260505061502 | 57 | 50 | 6.0 | 0.0 | 0.00 | 0.00 | 0.00 | 82 | 1004.5 |
| 20260505060002 | 57 | 40 | 6.0 | 0.0 | 0.00 | 0.00 | 0.00 | 82 | 1004.5 |
| 20260505054502 | 57 | 40 | 6.0 | 0.0 | 0.00 | 0.00 | 0.00 | 80 | 1004.5 |
| 20260505053002 | 57 | 30 | 4.0 | 0.0 | 0.00 | 0.00 | 0.00 | 80 | 1004.5 |
| 20260505051502 | 56 | 30 | 4.0 | 0.0 | 0.00 | 0.00 | 0.00 | 83 | 1004.7 |
| 20260505041502 | 56 | 30 | 4.0 | 0.0 | 0.00 | 0.00 | 0.00 | 81 | 1004.8 |
| 20260505040003 | 56 | 30 | 4.0 | 0.0 | 0.00 | 0.00 | 0.00 | 81 | 1004.8 |
| 20260505034502 | 56 | 10 | 2.0 | 0.0 | 0.00 | 0.00 | 0.00 | 81 | 1004.9 |
| 20260505033002 | 56 | 10 | 2.0 | 0.0 | 0.00 | 0.00 | 0.00 | 81 | 1004.9 |
| 20260505031502 | 57 | 10 | 2.0 | 0.0 | 0.00 | 0.00 | 0.00 | 77 | 1005.3 |
| 20260505030003 | 57 | 90 | 3.0 | 0.0 | 0.00 | 0.00 | 0.00 | 77 | 1005.3 |